FW7889 Weather Reports


time (UTC)temp
C
wind
direction
speed
KPH
gust
KPH
rain 1hr
cm
rain 24hr
cm
rain mn
cm
humidity
%
barometer
mb
20260503005255 2 315 1.6 1.6 0.00 0.15 0.15 83 1066.9
20260503004255 2 306 0.0 1.6 0.00 0.15 0.15 82 1066.8
20260503003254 2 322 1.6 3.2 0.00 0.15 0.15 81 1066.6
20260503002254 2 296 1.6 1.6 0.00 0.15 0.15 80 1066.8
20260503001253 3 310 1.6 1.6 0.00 0.15 0.15 78 1066.2
20260503000248 3 348 3.2 3.2 0.00 0.15 0.15 77 1066.5
20260502235242 3 318 3.2 4.8 0.00 0.15 0.15 76 1066.4
20260502234242 3 318 6.4 8.0 0.00 0.15 0.15 74 1066.2
20260502233240 4 23 8.0 9.7 0.00 0.15 0.15 74 1066.0
20260502232239 4 320 1.6 1.6 0.00 0.15 0.15 72 1066.1
20260502231234 5 311 3.2 3.2 0.00 0.15 0.15 66 1065.7
20260502230230 5 278 3.2 3.2 0.00 0.15 0.15 64 1066.0
20260502225229 5 318 3.2 3.2 0.00 0.15 0.15 63 1066.0
20260502224228 5 330 4.8 4.8 0.00 0.15 0.15 62 1065.7
20260502223223 5 286 4.8 4.8 0.00 0.15 0.15 61 1065.7
20260502222223 5 268 8.0 9.7 0.00 0.15 0.15 59 1065.6
20260502221222 5 275 8.0 9.7 0.00 0.15 0.15 56 1065.6
20260502220220 5 326 3.2 4.8 0.00 0.15 0.15 55 1065.8
20260502215221 5 336 4.8 8.0 0.00 0.15 0.15 54 1065.6
20260502214215 5 265 1.6 3.2 0.00 0.15 0.15 58 1065.5
20260502213215 5 284 4.8 9.7 0.00 0.15 0.15 58 1065.8
20260502212212 6 244 8.0 9.7 0.00 0.15 0.15 58 1065.9
20260502211210 5 332 1.6 1.6 0.00 0.15 0.15 63 1065.6
20260502210211 5 255 4.8 4.8 0.00 0.15 0.15 63 1065.7
20260502205210 5 304 6.4 8.0 0.00 0.15 0.15 62 1065.7
20260502204205 5 287 6.4 8.0 0.00 0.15 0.15 60 1065.8
20260502203200 5 271 4.8 4.8 0.00 0.15 0.15 61 1065.8
20260502202158 6 257 6.4 8.0 0.00 0.15 0.15 59 1065.9
20260502201158 5 323 4.8 4.8 0.00 0.15 0.15 61 1066.0
20260502200156 6 344 8.0 12.9 0.00 0.15 0.15 56 1065.8
20260502195156 5 334 4.8 8.0 0.00 0.15 0.15 58 1066.0
20260502194156 5 330 4.8 4.8 0.00 0.15 0.15 55 1066.0
20260502193155 6 341 12.9 16.1 0.00 0.15 0.15 55 1065.9
20260502192154 5 16 4.8 4.8 0.00 0.15 0.15 67 1066.2
20260502191154 5 288 3.2 3.2 0.00 0.15 0.15 63 1066.4
20260502190150 4 258 4.8 8.0 0.00 0.15 0.15 62 1066.5
20260502185147 4 261 0.0 1.6 0.00 0.15 0.15 64 1066.7
20260502184143 4 287 1.6 3.2 0.00 0.15 0.15 71 1066.5
20260502183141 4 330 4.8 4.8 0.00 0.15 0.15 70 1066.6
20260502182137 4 315 3.2 3.2 0.00 0.15 0.15 71 1066.7
20260502181134 4 326 3.2 4.8 0.00 0.15 0.15 70 1066.6
20260502180133 3 317 3.2 3.2 0.00 0.15 0.15 71 1066.8
20260502170125 3 22 8.0 9.7 0.00 0.15 0.15 82 1066.2
20260502164124 3 311 8.0 9.7 0.00 0.15 0.15 82 1066.2
20260502163123 3 289 3.2 4.8 0.00 0.15 0.15 83 1066.4
20260502162117 3 273 4.8 4.8 0.00 0.15 0.15 85 1066.5
20260502161117 2 312 3.2 3.2 0.00 0.15 0.15 85 1066.6
20260502160113 2 320 3.2 4.8 0.00 0.15 0.15 88 1066.6
20260502152103 2 276 6.4 8.0 0.00 0.15 0.15 92 1066.9
20260502151057 2 267 8.0 9.7 0.00 0.15 0.15 92 1066.7
20260502123028 2 264 1.6 1.6 0.00 0.15 0.15 99 1066.8
20260502122028 2 276 0.0 1.6 0.00 0.15 0.15 99 1066.8
20260502121028 2 265 1.6 1.6 0.00 0.15 0.15 99 1066.7
20260502115027 2 262 1.6 3.2 0.00 0.15 0.15 99 1066.7
20260502114026 2 270 3.2 3.2 0.00 0.15 0.15 99 1066.7
20260502113023 2 273 0.0 0.0 0.00 0.15 0.15 99 1066.7
20260502112023 2 269 3.2 3.2 0.00 0.15 0.15 99 1066.6
20260502111018 1 265 1.6 1.6 0.00 0.15 0.15 99 1066.6
20260502110013 1 271 0.0 0.0 0.00 0.15 0.15 99 1066.5
20260502105013 1 268 1.6 1.6 0.00 0.15 0.15 99 1066.5
20260502104008 1 268 1.6 1.6 0.00 0.15 0.15 99 1066.4
20260502103002 1 271 0.0 0.0 0.00 0.15 0.15 99 1066.2
20260502102002 1 272 0.0 0.0 0.00 0.15 0.15 99 1066.4
20260502100958 1 273 0.0 0.0 0.00 0.15 0.15 99 1066.0
20260502090934 1 278 0.0 0.0 0.00 0.15 0.15 99 1065.6
20260502070910 1 302 0.0 0.0 0.00 0.15 0.15 99 1065.4
20260502065906 1 284 0.0 0.0 0.00 0.15 0.15 99 1065.6
20260502064902 1 285 0.0 0.0 0.00 0.15 0.15 99 1065.3
20260502063856 1 290 1.6 1.6 0.00 0.15 0.15 99 1065.5
20260502062851 1 293 0.0 0.0 0.00 0.15 0.15 99 1065.6
20260502061847 1 299 0.0 0.0 0.18 0.15 0.15 99 1065.6
20260502060846 1 293 0.0 1.6 0.00 0.13 0.13 99 1065.6
20260502055845 1 285 0.0 0.0 0.00 0.13 0.13 99 1065.7
20260502054842 1 285 0.0 0.0 0.00 0.13 0.13 99 1065.5
20260502053837 1 275 0.0 0.0 0.00 0.13 0.13 99 1065.8
20260502052837 1 279 0.0 0.0 0.13 0.13 0.13 99 1065.9
20260502051832 1 279 0.0 0.0 0.00 0.10 0.10 99 1065.9
20260502050832 1 284 0.0 0.0 0.00 0.10 0.10 99 1065.6
20260502045832 1 285 0.0 0.0 0.18 0.10 0.10 99 1065.6
20260502044832 1 314 0.0 0.0 0.00 0.08 0.08 99 1065.9
20260502043831 2 283 0.0 0.0 0.13 0.08 0.08 99 1065.7
20260502042828 1 281 0.0 0.0 0.00 0.05 0.05 99 1065.9
20260502041823 1 273 0.0 0.0 0.18 0.05 0.05 99 1065.8
20260502040823 1 275 0.0 0.0 0.13 0.03 0.03 99 1065.8
20260502035822 1 272 0.0 0.0 0.18 0.46 0.46 99 1066.1
20260502034816 2 273 0.0 0.0 0.18 0.43 0.43 99 1066.0
20260502033812 2 272 1.6 1.6 0.30 0.38 0.38 99 1066.1
20260502032812 2 291 0.0 0.0 0.61 0.33 0.33 99 1065.9
20260502031812 2 37 0.0 1.6 0.30 0.20 0.20 99 1065.6
20260502030808 2 286 0.0 0.0 0.30 0.15 0.15 98 1065.8
20260502025803 2 67 3.2 3.2 0.30 0.10 0.10 98 1065.8
20260502024758 3 290 0.0 0.0 0.18 0.05 0.05 98 1065.8
20260502023754 3 290 0.0 0.0 0.13 0.03 0.03 97 1065.6
20260502022749 3 274 0.0 0.0 0.00 0.00 0.00 97 1065.8
20260502021748 3 69 1.6 1.6 0.00 0.00 0.00 97 1065.7
20260502020748 3 324 1.6 1.6 0.00 0.00 0.00 96 1065.8
20260502015743 3 47 0.0 0.0 0.00 0.00 0.00 96 1066.0
20260502014742 4 355 3.2 3.2 0.00 0.00 0.00 94 1065.9
20260502013741 4 145 3.2 3.2 0.00 0.00 0.00 94 1065.8
20260502012739 4 296 0.0 0.0 0.00 0.00 0.00 93 1065.9
20260502011734 4 296 0.0 0.0 0.00 0.00 0.00 92 1065.7
20260502010734 4 318 1.6 1.6 0.00 0.00 0.00 91 1065.5